Time,TemperatureF,DewpointF,PressureIn,WindDirection,WindDirectionDegrees,WindSpeedMPH,WindSpeedGustMPH,Humidity,HourlyPrecipIn,Conditions,Clouds,dailyrainin,SoftwareType,DateUTC
2013-01-31 00:03:00,41.5,36.4,30.28,North,0,0.0,0.0,82,0.00,,,0.00,WUHU21623XXSP,2013-01-31 08:03:00,
2013-01-31 00:08:00,41.5,36.4,30.29,North,0,0.0,0.0,82,0.00,,,0.00,WUHU21623XXSP,2013-01-31 08:08:00,
2013-01-31 00:13:00,41.4,36.2,30.29,North,0,0.0,0.0,82,0.00,,,0.00,WUHU21623XXSP,2013-01-31 08:13:00,
2013-01-31 00:18:00,41.2,36.3,30.29,North,0,0.0,0.0,83,0.00,,,0.00,WUHU21623XXSP,2013-01-31 08:18:00,
2013-01-31 00:23:00,41.2,36.3,30.29,North,0,0.0,0.0,83,0.00,,,0.00,WUHU21623XXSP,2013-01-31 08:23:00,
2013-01-31 00:28:00,40.8,36.0,30.29,North,0,0.0,0.0,83,0.00,,,0.00,WUHU21623XXSP,2013-01-31 08:28:00,
2013-01-31 00:33:00,40.8,36.0,30.28,North,0,0.0,0.0,83,0.00,,,0.00,WUHU21623XXSP,2013-01-31 08:33:00,
2013-01-31 00:38:00,40.8,36.0,30.28,North,0,0.0,0.0,83,0.00,,,0.00,WUHU21623XXSP,2013-01-31 08:38:00,
2013-01-31 00:43:00,40.6,35.8,30.28,North,0,0.0,0.0,83,0.00,,,0.00,WUHU21623XXSP,2013-01-31 08:43:00,
2013-01-31 00:48:00,40.6,35.8,30.28,North,0,0.0,0.0,83,0.00,,,0.00,WUHU21623XXSP,2013-01-31 08:48:00,
2013-01-31 00:53:00,40.5,35.7,30.28,North,0,0.0,0.0,83,0.00,,,0.00,WUHU21623XXSP,2013-01-31 08:53:00,
2013-01-31 00:58:00,40.3,35.5,30.28,North,0,0.0,0.0,83,0.00,,,0.00,WUHU21623XXSP,2013-01-31 08:58:00,
2013-01-31 01:03:00,40.3,35.5,30.28,North,0,0.0,0.0,83,0.00,,,0.00,WUHU21623XXSP,2013-01-31 09:03:00,
2013-01-31 01:08:00,40.1,35.3,30.28,North,0,0.0,0.0,83,0.00,,,0.00,WUHU21623XXSP,2013-01-31 09:08:00,
2013-01-31 01:13:00,40.1,35.6,30.28,North,0,0.0,0.0,84,0.00,,,0.00,WUHU21623XXSP,2013-01-31 09:13:00,
2013-01-31 01:18:00,39.9,35.4,30.28,North,0,0.0,0.0,84,0.00,,,0.00,WUHU21623XXSP,2013-01-31 09:18:00,
2013-01-31 01:23:00,39.9,35.4,30.28,North,0,0.0,0.0,84,0.00,,,0.00,WUHU21623XXSP,2013-01-31 09:23:00,
2013-01-31 01:28:00,39.7,35.4,30.28,North,0,0.0,0.0,84,0.00,,,0.00,WUHU21623XXSP,2013-01-31 09:28:00,
2013-01-31 01:33:00,39.7,35.3,30.29,North,0,0.0,0.0,84,0.00,,,0.00,WUHU21623XXSP,2013-01-31 09:33:00,
2013-01-31 01:38:00,39.6,35.1,30.28,North,0,0.0,0.0,84,0.00,,,0.00,WUHU21623XXSP,2013-01-31 09:38:00,
2013-01-31 01:43:00,39.6,35.1,30.28,North,0,0.0,0.0,84,0.00,,,0.00,WUHU21623XXSP,2013-01-31 09:43:00,
2013-01-31 01:48:00,39.4,34.9,30.28,North,0,0.0,0.0,84,0.00,,,0.00,WUHU21623XXSP,2013-01-31 09:48:00,
2013-01-31 01:53:00,39.4,34.9,30.28,North,0,0.0,0.0,84,0.00,,,0.00,WUHU21623XXSP,2013-01-31 09:53:00,
2013-01-31 01:58:00,39.4,34.9,30.28,North,0,0.0,0.0,84,0.00,,,0.00,WUHU21623XXSP,2013-01-31 09:58:00,
2013-01-31 02:03:00,39.0,34.9,30.28,North,0,0.0,0.0,85,0.00,,,0.00,WUHU21623XXSP,2013-01-31 10:03:00,
2013-01-31 02:08:00,39.0,34.9,30.28,North,0,0.0,0.0,85,0.00,,,0.00,WUHU21623XXSP,2013-01-31 10:08:00,
2013-01-31 02:13:00,39.0,34.9,30.28,North,0,0.0,0.0,85,0.00,,,0.00,WUHU21623XXSP,2013-01-31 10:13:00,
2013-01-31 02:18:00,39.0,34.9,30.28,North,0,0.0,0.0,85,0.00,,,0.00,WUHU21623XXSP,2013-01-31 10:18:00,
2013-01-31 02:23:00,39.0,34.9,30.28,North,0,0.0,0.0,85,0.00,,,0.00,WUHU21623XXSP,2013-01-31 10:23:00,
2013-01-31 02:28:00,39.0,34.9,30.28,North,0,0.0,0.0,85,0.00,,,0.00,WUHU21623XXSP,2013-01-31 10:28:00,
2013-01-31 02:33:00,38.8,34.7,30.28,North,0,0.0,0.0,85,0.00,,,0.00,WUHU21623XXSP,2013-01-31 10:33:00,
2013-01-31 02:38:00,38.8,34.7,30.28,North,0,0.0,0.0,85,0.00,,,0.00,WUHU21623XXSP,2013-01-31 10:38:00,
2013-01-31 02:43:00,38.8,34.7,30.27,North,0,0.0,0.0,85,0.00,,,0.00,WUHU21623XXSP,2013-01-31 10:43:00,
2013-01-31 02:48:00,38.8,34.7,30.28,North,0,0.0,0.0,85,0.00,,,0.00,WUHU21623XXSP,2013-01-31 10:48:00,
2013-01-31 02:53:00,38.5,34.3,30.28,North,0,0.0,0.0,85,0.00,,,0.00,WUHU21623XXSP,2013-01-31 10:53:00,
2013-01-31 02:58:00,38.5,34.3,30.27,North,0,0.0,0.0,85,0.00,,,0.00,WUHU21623XXSP,2013-01-31 10:58:00,
2013-01-31 03:03:00,38.5,34.3,30.27,North,0,0.0,0.0,85,0.00,,,0.00,WUHU21623XXSP,2013-01-31 11:03:00,
2013-01-31 03:08:00,38.5,34.3,30.27,North,0,0.0,0.0,85,0.00,,,0.00,WUHU21623XXSP,2013-01-31 11:08:00,
2013-01-31 03:13:00,38.5,34.3,30.27,North,0,0.0,0.0,85,0.00,,,0.00,WUHU21623XXSP,2013-01-31 11:13:00,
2013-01-31 03:18:00,38.3,34.2,30.27,North,0,0.0,0.0,85,0.00,,,0.00,WUHU21623XXSP,2013-01-31 11:18:00,
2013-01-31 03:23:00,38.3,34.2,30.27,North,0,0.0,0.0,85,0.00,,,0.00,WUHU21623XXSP,2013-01-31 11:23:00,
2013-01-31 03:28:00,38.1,34.0,30.28,North,0,0.0,0.0,85,0.00,,,0.00,WUHU21623XXSP,2013-01-31 11:28:00,
2013-01-31 03:33:00,38.1,34.3,30.27,North,0,0.0,0.0,86,0.00,,,0.00,WUHU21623XXSP,2013-01-31 11:33:00,
2013-01-31 03:38:00,37.9,34.1,30.26,North,0,0.0,0.0,86,0.00,,,0.00,WUHU21623XXSP,2013-01-31 11:38:00,
2013-01-31 03:43:00,37.9,34.1,30.26,North,0,0.0,0.0,86,0.00,,,0.00,WUHU21623XXSP,2013-01-31 11:43:00,
2013-01-31 03:48:00,37.9,34.1,30.27,North,0,0.0,0.0,86,0.00,,,0.00,WUHU21623XXSP,2013-01-31 11:48:00,
2013-01-31 03:53:00,37.8,33.9,30.27,North,0,0.0,0.0,86,0.00,,,0.00,WUHU21623XXSP,2013-01-31 11:53:00,
2013-01-31 03:58:00,37.8,33.9,30.27,North,0,0.0,0.0,86,0.00,,,0.00,WUHU21623XXSP,2013-01-31 11:58:00,
2013-01-31 04:03:00,37.6,33.7,30.26,North,0,0.0,0.0,86,0.00,,,0.00,WUHU21623XXSP,2013-01-31 12:03:00,
2013-01-31 04:08:00,37.6,33.7,30.26,North,0,0.0,0.0,86,0.00,,,0.00,WUHU21623XXSP,2013-01-31 12:08:00,
2013-01-31 04:13:00,37.4,33.5,30.26,North,0,0.0,0.0,86,0.00,,,0.00,WUHU21623XXSP,2013-01-31 12:13:00,
2013-01-31 04:18:00,37.2,33.4,30.27,North,0,0.0,0.0,86,0.00,,,0.00,WUHU21623XXSP,2013-01-31 12:18:00,
2013-01-31 04:23:00,37.2,33.4,30.27,North,0,0.0,0.0,86,0.00,,,0.00,WUHU21623XXSP,2013-01-31 12:23:00,
2013-01-31 04:28:00,37.2,33.4,30.27,North,0,0.0,0.0,86,0.00,,,0.00,WUHU21623XXSP,2013-01-31 12:28:00,
2013-01-31 04:33:00,37.2,33.4,30.27,North,0,0.0,0.0,86,0.00,,,0.00,WUHU21623XXSP,2013-01-31 12:33:00,
2013-01-31 04:38:00,37.2,33.4,30.27,North,0,0.0,0.0,86,0.00,,,0.00,WUHU21623XXSP,2013-01-31 12:38:00,
2013-01-31 04:43:00,37.0,33.2,30.27,North,0,0.0,0.0,86,0.00,,,0.00,WUHU21623XXSP,2013-01-31 12:43:00,
2013-01-31 04:48:00,37.0,33.2,30.27,North,0,0.0,0.0,86,0.00,,,0.00,WUHU21623XXSP,2013-01-31 12:48:00,
2013-01-31 04:53:00,36.9,33.0,30.27,North,0,0.0,0.0,86,0.00,,,0.00,WUHU21623XXSP,2013-01-31 12:53:00,
2013-01-31 04:58:00,36.9,33.0,30.27,North,0,0.0,0.0,86,0.00,,,0.00,WUHU21623XXSP,2013-01-31 12:58:00,
2013-01-31 05:03:00,36.7,33.0,30.28,North,0,0.0,0.0,86,0.00,,,0.00,WUHU21623XXSP,2013-01-31 13:03:00,
2013-01-31 05:08:00,36.7,32.8,30.27,North,0,0.0,0.0,86,0.00,,,0.00,WUHU21623XXSP,2013-01-31 13:08:00,
2013-01-31 05:13:00,36.7,32.8,30.28,North,0,0.0,0.0,86,0.00,,,0.00,WUHU21623XXSP,2013-01-31 13:13:00,
2013-01-31 05:18:00,36.7,32.8,30.27,North,0,0.0,0.0,86,0.00,,,0.00,WUHU21623XXSP,2013-01-31 13:18:00,
2013-01-31 05:23:00,36.7,32.8,30.27,North,0,0.0,0.0,86,0.00,,,0.00,WUHU21623XXSP,2013-01-31 13:23:00,
2013-01-31 05:28:00,36.7,32.8,30.27,North,0,0.0,0.0,86,0.00,,,0.00,WUHU21623XXSP,2013-01-31 13:28:00,
2013-01-31 05:33:00,36.5,32.6,30.26,North,0,0.0,0.0,86,0.00,,,0.00,WUHU21623XXSP,2013-01-31 13:33:00,
2013-01-31 05:38:00,36.5,32.9,30.27,North,0,0.0,0.0,87,0.00,,,0.00,WUHU21623XXSP,2013-01-31 13:38:00,
2013-01-31 05:43:00,36.5,32.9,30.27,North,0,0.0,0.0,87,0.00,,,0.00,WUHU21623XXSP,2013-01-31 13:43:00,
2013-01-31 05:48:00,36.3,32.8,30.27,North,0,0.0,0.0,87,0.00,,,0.00,WUHU21623XXSP,2013-01-31 13:48:00,
2013-01-31 05:53:00,36.3,32.8,30.27,North,0,0.0,0.0,87,0.00,,,0.00,WUHU21623XXSP,2013-01-31 13:53:00,
2013-01-31 05:58:00,36.3,32.8,30.27,North,0,0.0,0.0,87,0.00,,,0.00,WUHU21623XXSP,2013-01-31 13:58:00,
2013-01-31 06:03:00,36.3,32.8,30.27,North,0,0.0,0.0,87,0.00,,,0.00,WUHU21623XXSP,2013-01-31 14:03:00,
2013-01-31 06:08:00,36.1,32.6,30.27,North,0,0.0,0.0,87,0.00,,,0.00,WUHU21623XXSP,2013-01-31 14:08:00,
2013-01-31 06:13:00,36.1,32.6,30.27,North,0,0.0,0.0,87,0.00,,,0.00,WUHU21623XXSP,2013-01-31 14:13:00,
2013-01-31 06:18:00,36.1,32.6,30.27,North,0,0.0,0.0,87,0.00,,,0.00,WUHU21623XXSP,2013-01-31 14:18:00,
2013-01-31 06:23:00,36.0,32.4,30.27,North,0,0.0,0.0,87,0.00,,,0.00,WUHU21623XXSP,2013-01-31 14:23:00,
2013-01-31 06:28:00,36.0,32.4,30.27,North,0,0.0,0.0,87,0.00,,,0.00,WUHU21623XXSP,2013-01-31 14:28:00,
2013-01-31 06:33:00,35.8,32.2,30.27,North,0,0.0,0.0,87,0.00,,,0.00,WUHU21623XXSP,2013-01-31 14:33:00,
2013-01-31 06:38:00,35.8,32.2,30.27,North,0,0.0,0.0,87,0.00,,,0.00,WUHU21623XXSP,2013-01-31 14:38:00,
2013-01-31 06:43:00,35.8,32.2,30.27,North,0,0.0,0.0,87,0.00,,,0.00,WUHU21623XXSP,2013-01-31 14:43:00,
2013-01-31 06:48:00,35.8,32.2,30.27,North,0,0.0,0.0,87,0.00,,,0.00,WUHU21623XXSP,2013-01-31 14:48:00,
2013-01-31 06:53:00,35.8,32.2,30.28,North,0,0.0,0.0,87,0.00,,,0.00,WUHU21623XXSP,2013-01-31 14:53:00,
2013-01-31 06:58:00,35.8,32.2,30.28,North,0,0.0,0.0,87,0.00,,,0.00,WUHU21623XXSP,2013-01-31 14:58:00,
2013-01-31 07:03:00,35.8,32.2,30.28,North,0,0.0,0.0,87,0.00,,,0.00,WUHU21623XXSP,2013-01-31 15:03:00,
2013-01-31 07:08:00,35.8,32.2,30.28,North,0,0.0,0.0,87,0.00,,,0.00,WUHU21623XXSP,2013-01-31 15:08:00,
2013-01-31 07:13:00,35.8,32.2,30.28,North,0,0.0,0.0,87,0.00,,,0.00,WUHU21623XXSP,2013-01-31 15:13:00,
2013-01-31 07:18:00,35.6,32.5,30.29,North,0,0.0,0.0,88,0.00,,,0.00,WUHU21623XXSP,2013-01-31 15:18:00,
2013-01-31 07:23:00,35.8,32.3,30.28,North,0,0.0,0.0,88,0.00,,,0.00,WUHU21623XXSP,2013-01-31 15:23:00,
2013-01-31 07:28:00,35.8,32.5,30.29,North,0,0.0,0.0,88,0.00,,,0.00,WUHU21623XXSP,2013-01-31 15:28:00,
2013-01-31 07:33:00,35.8,32.5,30.29,North,0,0.0,0.0,88,0.00,,,0.00,WUHU21623XXSP,2013-01-31 15:33:00,
2013-01-31 07:38:00,35.8,32.5,30.29,North,0,0.0,0.0,88,0.00,,,0.00,WUHU21623XXSP,2013-01-31 15:38:00,
2013-01-31 07:44:00,36.1,32.9,30.29,North,0,0.0,0.0,88,0.00,,,0.00,WUHU21623XXSP,2013-01-31 15:44:00,
2013-01-31 07:49:00,36.1,32.9,30.29,North,0,0.0,0.0,88,0.00,,,0.00,WUHU21623XXSP,2013-01-31 15:49:00,
2013-01-31 07:54:00,36.3,33.0,30.30,North,0,0.0,0.0,88,0.00,,,0.00,WUHU21623XXSP,2013-01-31 15:54:00,
2013-01-31 07:59:00,36.7,33.4,30.29,North,0,0.0,0.0,88,0.00,,,0.00,WUHU21623XXSP,2013-01-31 15:59:00,
2013-01-31 08:04:00,37.0,33.9,30.30,North,0,0.0,0.0,89,0.00,,,0.00,WUHU21623XXSP,2013-01-31 16:04:00,
2013-01-31 08:09:00,37.2,34.2,30.29,North,0,0.0,0.0,89,0.00,,,0.00,WUHU21623XXSP,2013-01-31 16:09:00,
2013-01-31 08:14:00,37.8,34.6,30.30,North,0,0.0,0.0,89,0.00,,,0.00,WUHU21623XXSP,2013-01-31 16:14:00,
2013-01-31 08:19:00,37.9,35.0,30.29,North,0,0.0,0.0,89,0.00,,,0.00,WUHU21623XXSP,2013-01-31 16:19:00,
2013-01-31 08:24:00,38.5,35.3,30.29,North,0,0.0,0.0,89,0.00,,,0.00,WUHU21623XXSP,2013-01-31 16:24:00,
2013-01-31 08:29:00,38.8,35.9,30.30,North,0,0.0,0.0,89,0.00,,,0.00,WUHU21623XXSP,2013-01-31 16:29:00,
2013-01-31 08:34:00,39.7,37.0,30.30,North,0,0.0,0.0,90,0.00,,,0.00,WUHU21623XXSP,2013-01-31 16:34:00,
2013-01-31 08:39:00,40.8,38.1,30.30,North,0,0.0,0.0,90,0.00,,,0.00,WUHU21623XXSP,2013-01-31 16:39:00,
2013-01-31 08:44:00,41.4,38.7,30.30,North,0,0.0,0.0,90,0.00,,,0.00,WUHU21623XXSP,2013-01-31 16:44:00,
2013-01-31 08:49:00,42.6,39.4,30.30,North,0,0.0,0.0,90,0.00,,,0.00,WUHU21623XXSP,2013-01-31 16:49:00,
2013-01-31 08:54:00,43.0,40.3,30.29,North,0,0.0,0.0,90,0.00,,,0.00,WUHU21623XXSP,2013-01-31 16:54:00,
2013-01-31 08:59:00,43.5,40.8,30.30,North,0,0.0,0.0,90,0.00,,,0.00,WUHU21623XXSP,2013-01-31 16:59:00,
2013-01-31 09:04:00,44.6,41.7,30.29,North,0,0.0,0.0,90,0.00,,,0.00,WUHU21623XXSP,2013-01-31 17:04:00,
2013-01-31 09:09:00,45.1,42.4,30.29,North,0,0.0,0.0,90,0.00,,,0.00,WUHU21623XXSP,2013-01-31 17:09:00,
2013-01-31 09:14:00,46.0,43.3,30.30,North,0,0.0,0.0,90,0.00,,,0.00,WUHU21623XXSP,2013-01-31 17:14:00,
2013-01-31 09:20:00,46.6,43.9,30.30,North,0,0.0,0.0,90,0.00,,,0.00,WUHU21623XXSP,2013-01-31 17:20:00,
2013-01-31 09:25:00,46.9,44.2,30.29,North,0,0.0,0.0,90,0.00,,,0.00,WUHU21623XXSP,2013-01-31 17:25:00,
2013-01-31 09:30:00,47.7,45.0,30.29,North,0,0.0,0.0,90,0.00,,,0.00,WUHU21623XXSP,2013-01-31 17:30:00,
2013-01-31 09:35:00,48.0,45.3,30.30,North,0,0.0,0.0,90,0.00,,,0.00,WUHU21623XXSP,2013-01-31 17:35:00,
2013-01-31 09:40:00,48.7,45.7,30.30,North,0,0.0,0.0,89,0.00,,,0.00,WUHU21623XXSP,2013-01-31 17:40:00,
2013-01-31 09:45:00,49.3,46.1,30.29,North,0,0.0,0.0,89,0.00,,,0.00,WUHU21623XXSP,2013-01-31 17:45:00,
2013-01-31 09:50:00,50.0,46.3,30.30,North,0,0.0,0.0,88,0.00,,,0.00,WUHU21623XXSP,2013-01-31 17:50:00,
2013-01-31 09:55:00,50.4,46.5,30.29,North,0,0.0,0.0,87,0.00,,,0.00,WUHU21623XXSP,2013-01-31 17:55:00,
2013-01-31 10:00:00,51.1,46.1,30.30,North,0,0.0,0.0,83,0.00,,,0.00,WUHU21623XXSP,2013-01-31 18:00:00,
2013-01-31 10:05:00,51.4,46.4,30.30,North,0,0.0,0.0,83,0.00,,,0.00,WUHU21623XXSP,2013-01-31 18:05:00,
2013-01-31 10:10:00,52.0,46.3,30.30,North,0,0.0,0.0,81,0.00,,,0.00,WUHU21623XXSP,2013-01-31 18:10:00,
2013-01-31 10:15:00,52.5,46.2,30.30,North,0,0.0,3.8,79,0.00,,,0.00,WUHU21623XXSP,2013-01-31 18:15:00,
2013-01-31 10:20:00,53.2,46.6,30.30,North,0,0.0,3.8,78,0.00,,,0.00,WUHU21623XXSP,2013-01-31 18:20:00,
2013-01-31 10:25:00,53.2,46.2,30.30,North,0,0.0,0.0,77,0.00,,,0.00,WUHU21623XXSP,2013-01-31 18:25:00,
2013-01-31 10:30:00,53.8,46.0,30.30,NNW,337,0.0,0.0,75,0.00,,,0.00,WUHU21623XXSP,2013-01-31 18:30:00,
2013-01-31 10:35:00,54.3,46.2,30.30,North,0,0.0,0.0,74,0.00,,,0.00,WUHU21623XXSP,2013-01-31 18:35:00,
2013-01-31 10:40:00,54.9,46.3,30.30,North,0,0.0,0.0,73,0.00,,,0.00,WUHU21623XXSP,2013-01-31 18:40:00,
2013-01-31 10:45:00,55.2,46.4,30.30,North,0,0.0,0.0,72,0.00,,,0.00,WUHU21623XXSP,2013-01-31 18:45:00,
2013-01-31 10:50:00,55.6,46.4,30.29,NNE,22,0.0,0.0,70,0.00,,,0.00,WUHU21623XXSP,2013-01-31 18:50:00,
2013-01-31 10:55:00,55.9,46.3,30.29,NNE,22,0.0,0.0,70,0.00,,,0.00,WUHU21623XXSP,2013-01-31 18:55:00,
2013-01-31 11:00:00,56.1,46.1,30.29,North,0,0.0,0.0,69,0.00,,,0.00,WUHU21623XXSP,2013-01-31 19:00:00,
2013-01-31 11:05:00,56.5,46.0,30.28,North,0,0.0,0.0,68,0.00,,,0.00,WUHU21623XXSP,2013-01-31 19:05:00,
2013-01-31 11:10:00,57.0,46.5,30.28,North,0,0.0,0.0,68,0.00,,,0.00,WUHU21623XXSP,2013-01-31 19:10:00,
2013-01-31 11:15:00,57.4,46.5,30.28,NE,45,0.0,0.0,67,0.00,,,0.00,WUHU21623XXSP,2013-01-31 19:15:00,
2013-01-31 11:20:00,57.9,46.4,30.28,ENE,67,0.0,0.0,66,0.00,,,0.00,WUHU21623XXSP,2013-01-31 19:20:00,
2013-01-31 11:25:00,58.3,46.5,30.28,North,0,0.0,0.0,65,0.00,,,0.00,WUHU21623XXSP,2013-01-31 19:25:00,
2013-01-31 11:30:00,58.3,46.1,30.27,North,0,0.0,0.0,64,0.00,,,0.00,WUHU21623XXSP,2013-01-31 19:30:00,
2013-01-31 11:35:00,58.8,46.5,30.27,North,0,0.0,0.0,64,0.00,,,0.00,WUHU21623XXSP,2013-01-31 19:35:00,
2013-01-31 11:40:00,58.8,46.2,30.27,NNE,22,0.0,0.0,63,0.00,,,0.00,WUHU21623XXSP,2013-01-31 19:40:00,
2013-01-31 11:45:00,58.8,45.8,30.27,NE,45,0.0,0.0,62,0.00,,,0.00,WUHU21623XXSP,2013-01-31 19:45:00,
2013-01-31 11:50:00,59.2,46.1,30.26,East,90,0.0,0.0,62,0.00,,,0.00,WUHU21623XXSP,2013-01-31 19:50:00,
2013-01-31 11:55:00,59.5,46.1,30.26,North,0,0.0,0.0,61,0.00,,,0.00,WUHU21623XXSP,2013-01-31 19:55:00,
2013-01-31 12:00:00,59.7,46.3,30.26,North,0,0.0,0.0,61,0.00,,,0.00,WUHU21623XXSP,2013-01-31 20:00:00,
2013-01-31 12:05:00,60.1,46.2,30.26,North,0,0.0,0.0,60,0.00,,,0.00,WUHU21623XXSP,2013-01-31 20:05:00,
2013-01-31 12:10:00,60.4,46.6,30.26,North,0,0.0,0.0,60,0.00,,,0.00,WUHU21623XXSP,2013-01-31 20:10:00,
2013-01-31 12:15:00,60.4,46.1,30.25,North,0,0.0,0.0,59,0.00,,,0.00,WUHU21623XXSP,2013-01-31 20:15:00,
2013-01-31 12:20:00,60.4,46.1,30.25,North,0,0.0,0.0,59,0.00,,,0.00,WUHU21623XXSP,2013-01-31 20:20:00,
2013-01-31 12:25:00,60.6,45.8,30.25,North,0,0.0,0.0,58,0.00,,,0.00,WUHU21623XXSP,2013-01-31 20:25:00,
2013-01-31 12:30:00,60.6,46.3,30.24,North,0,0.0,0.0,59,0.00,,,0.00,WUHU21623XXSP,2013-01-31 20:30:00,
2013-01-31 12:35:00,61.0,46.1,30.24,NNW,337,0.0,0.0,58,0.00,,,0.00,WUHU21623XXSP,2013-01-31 20:35:00,
2013-01-31 12:40:00,61.3,46.5,30.24,NNW,337,0.0,0.0,58,0.00,,,0.00,WUHU21623XXSP,2013-01-31 20:40:00,
2013-01-31 12:45:00,61.5,46.1,30.24,NNW,337,0.0,0.0,57,0.00,,,0.00,WUHU21623XXSP,2013-01-31 20:45:00,
2013-01-31 12:50:00,61.5,45.6,30.23,NNW,337,0.0,0.0,56,0.00,,,0.00,WUHU21623XXSP,2013-01-31 20:50:00,
2013-01-31 12:55:00,61.7,46.3,30.23,NNW,337,0.0,0.0,57,0.00,,,0.00,WUHU21623XXSP,2013-01-31 20:55:00,
2013-01-31 13:00:00,61.9,46.5,30.23,North,0,7.4,7.4,57,0.00,,,0.00,WUHU21623XXSP,2013-01-31 21:00:00,
2013-01-31 13:05:00,62.2,46.3,30.22,North,0,0.0,7.4,56,0.00,,,0.00,WUHU21623XXSP,2013-01-31 21:05:00,
2013-01-31 13:10:00,62.8,46.5,30.23,North,0,0.0,0.0,56,0.00,,,0.00,WUHU21623XXSP,2013-01-31 21:10:00,
2013-01-31 13:16:00,63.1,47.1,30.22,North,0,0.0,0.0,56,0.00,,,0.00,WUHU21623XXSP,2013-01-31 21:16:00,
2013-01-31 13:21:00,63.1,47.1,30.22,North,0,0.0,0.0,56,0.00,,,0.00,WUHU21623XXSP,2013-01-31 21:21:00,
2013-01-31 13:26:00,63.5,47.4,30.22,North,0,0.0,0.0,56,0.00,,,0.00,WUHU21623XXSP,2013-01-31 21:26:00,
2013-01-31 13:31:00,63.7,47.3,30.21,North,0,0.0,0.0,54,0.00,,,0.00,WUHU21623XXSP,2013-01-31 21:31:00,
2013-01-31 13:36:00,63.9,46.8,30.20,North,0,0.0,0.0,54,0.00,,,0.00,WUHU21623XXSP,2013-01-31 21:36:00,
2013-01-31 13:41:00,64.0,46.9,30.21,North,0,0.0,0.0,54,0.00,,,0.00,WUHU21623XXSP,2013-01-31 21:41:00,
2013-01-31 13:46:00,64.0,46.9,30.20,North,0,0.0,0.0,54,0.00,,,0.00,WUHU21623XXSP,2013-01-31 21:46:00,
2013-01-31 13:51:00,64.0,46.9,30.20,North,0,0.0,0.0,54,0.00,,,0.00,WUHU21623XXSP,2013-01-31 21:51:00,
2013-01-31 13:56:00,64.2,46.6,30.20,North,0,0.0,0.0,53,0.00,,,0.00,WUHU21623XXSP,2013-01-31 21:56:00,
2013-01-31 14:01:00,64.0,46.5,30.20,North,0,7.8,7.8,53,0.00,,,0.00,WUHU21623XXSP,2013-01-31 22:01:00,
2013-01-31 14:06:00,64.0,46.5,30.20,North,0,0.0,7.8,53,0.00,,,0.00,WUHU21623XXSP,2013-01-31 22:06:00,
2013-01-31 14:11:00,64.2,46.6,30.19,North,0,0.0,0.0,53,0.00,,,0.00,WUHU21623XXSP,2013-01-31 22:11:00,
2013-01-31 14:16:00,64.2,46.1,30.20,North,0,0.0,0.0,52,0.00,,,0.00,WUHU21623XXSP,2013-01-31 22:16:00,
2013-01-31 14:21:00,64.2,46.1,30.19,North,0,0.0,0.0,52,0.00,,,0.00,WUHU21623XXSP,2013-01-31 22:21:00,
2013-01-31 14:26:00,64.2,46.1,30.19,North,0,0.0,0.0,52,0.00,,,0.00,WUHU21623XXSP,2013-01-31 22:26:00,
2013-01-31 14:31:00,64.0,46.0,30.19,NNW,337,3.8,3.8,52,0.00,,,0.00,WUHU21623XXSP,2013-01-31 22:31:00,
2013-01-31 14:36:00,64.0,46.0,30.19,NNW,337,0.0,3.8,52,0.00,,,0.00,WUHU21623XXSP,2013-01-31 22:36:00,
2013-01-31 14:41:00,64.2,46.1,30.18,NNW,337,0.0,0.0,52,0.00,,,0.00,WUHU21623XXSP,2013-01-31 22:41:00,
2013-01-31 14:46:00,64.2,46.1,30.18,North,0,0.0,0.0,52,0.00,,,0.00,WUHU21623XXSP,2013-01-31 22:46:00,
2013-01-31 14:51:00,64.2,46.1,30.18,WNW,292,0.0,0.0,52,0.00,,,0.00,WUHU21623XXSP,2013-01-31 22:51:00,
2013-01-31 14:56:00,64.2,45.6,30.18,NNW,337,0.0,0.0,51,0.00,,,0.00,WUHU21623XXSP,2013-01-31 22:56:00,
2013-01-31 15:01:00,64.2,45.6,30.18,NNW,337,0.0,0.0,51,0.00,,,0.00,WUHU21623XXSP,2013-01-31 23:01:00,
2013-01-31 15:06:00,64.2,45.6,30.18,NNW,337,0.0,0.0,51,0.00,,,0.00,WUHU21623XXSP,2013-01-31 23:06:00,
2013-01-31 15:11:00,64.2,46.1,30.18,NNW,337,0.0,0.0,52,0.00,,,0.00,WUHU21623XXSP,2013-01-31 23:11:00,
2013-01-31 15:16:00,64.2,46.1,30.18,NNW,337,0.0,0.0,52,0.00,,,0.00,WUHU21623XXSP,2013-01-31 23:16:00,
2013-01-31 15:21:00,64.2,46.0,30.18,North,0,0.0,0.0,51,0.00,,,0.00,WUHU21623XXSP,2013-01-31 23:21:00,
2013-01-31 15:26:00,64.2,45.6,30.18,North,0,0.0,0.0,51,0.00,,,0.00,WUHU21623XXSP,2013-01-31 23:26:00,
2013-01-31 15:31:00,64.2,45.6,30.18,North,0,0.0,0.0,51,0.00,,,0.00,WUHU21623XXSP,2013-01-31 23:31:00,
2013-01-31 15:36:00,64.2,45.6,30.18,NNW,337,0.0,0.0,51,0.00,,,0.00,WUHU21623XXSP,2013-01-31 23:36:00,
2013-01-31 15:41:00,64.2,45.6,30.18,NNW,337,0.0,0.0,51,0.00,,,0.00,WUHU21623XXSP,2013-01-31 23:41:00,
2013-01-31 15:46:00,64.2,45.6,30.18,NNW,337,0.0,0.0,51,0.00,,,0.00,WUHU21623XXSP,2013-01-31 23:46:00,
2013-01-31 15:51:00,64.2,45.6,30.18,NNW,337,0.0,0.0,51,0.00,,,0.00,WUHU21623XXSP,2013-01-31 23:51:00,
2013-01-31 15:56:00,64.2,45.6,30.18,NNW,337,5.4,5.4,51,0.00,,,0.00,WUHU21623XXSP,2013-01-31 23:56:00,
2013-01-31 16:01:00,64.2,45.6,30.18,North,0,0.0,0.0,51,0.00,,,0.00,WUHU21623XXSP,2013-02-01 00:01:00,
2013-01-31 16:06:00,64.2,46.1,30.18,North,0,0.0,0.0,52,0.00,,,0.00,WUHU21623XXSP,2013-02-01 00:06:00,
2013-01-31 16:11:00,64.2,46.1,30.17,NNW,337,0.0,0.0,52,0.00,,,0.00,WUHU21623XXSP,2013-02-01 00:11:00,
2013-01-31 16:16:00,64.2,46.1,30.18,NNW,337,0.0,0.0,52,0.00,,,0.00,WUHU21623XXSP,2013-02-01 00:16:00,
2013-01-31 16:21:00,64.2,46.1,30.17,NNW,337,0.0,0.0,52,0.00,,,0.00,WUHU21623XXSP,2013-02-01 00:21:00,
2013-01-31 16:26:00,64.2,46.1,30.18,NNW,337,0.0,0.0,52,0.00,,,0.00,WUHU21623XXSP,2013-02-01 00:26:00,
2013-01-31 16:31:00,64.0,46.5,30.17,NNW,337,0.0,0.0,53,0.00,,,0.00,WUHU21623XXSP,2013-02-01 00:31:00,
2013-01-31 16:36:00,64.0,46.9,30.18,North,0,0.0,0.0,54,0.00,,,0.00,WUHU21623XXSP,2013-02-01 00:36:00,
2013-01-31 16:41:00,64.0,47.4,30.17,North,0,0.0,0.0,55,0.00,,,0.00,WUHU21623XXSP,2013-02-01 00:41:00,
2013-01-31 16:46:00,63.7,47.1,30.18,North,0,0.0,0.0,55,0.00,,,0.00,WUHU21623XXSP,2013-02-01 00:46:00,
2013-01-31 16:51:00,63.1,46.6,30.17,NNW,337,0.0,0.0,55,0.00,,,0.00,WUHU21623XXSP,2013-02-01 00:51:00,
2013-01-31 16:56:00,62.6,46.1,30.17,NNE,22,0.0,0.0,55,0.00,,,0.00,WUHU21623XXSP,2013-02-01 00:56:00,
2013-01-31 17:01:00,62.2,45.8,30.17,North,0,0.0,0.0,55,0.00,,,0.00,WUHU21623XXSP,2013-02-01 01:01:00,
2013-01-31 17:06:00,62.1,45.6,30.17,North,0,0.0,0.0,55,0.00,,,0.00,WUHU21623XXSP,2013-02-01 01:06:00,
2013-01-31 17:11:00,61.5,45.2,30.17,North,0,0.0,0.0,55,0.00,,,0.00,WUHU21623XXSP,2013-02-01 01:11:00,
2013-01-31 17:16:00,61.0,45.2,30.17,North,0,0.0,0.0,56,0.00,,,0.00,WUHU21623XXSP,2013-02-01 01:16:00,
2013-01-31 17:21:00,60.6,44.8,30.17,North,0,0.0,0.0,56,0.00,,,0.00,WUHU21623XXSP,2013-02-01 01:21:00,
2013-01-31 17:26:00,60.4,44.6,30.17,North,0,0.0,0.0,56,0.00,,,0.00,WUHU21623XXSP,2013-02-01 01:26:00,
2013-01-31 17:31:00,59.5,44.9,30.17,North,0,0.0,0.0,58,0.00,,,0.00,WUHU21623XXSP,2013-02-01 01:31:00,
2013-01-31 17:36:00,59.0,44.2,30.17,North,0,0.0,0.0,58,0.00,,,0.00,WUHU21623XXSP,2013-02-01 01:36:00,
2013-01-31 17:41:00,58.8,44.5,30.17,North,0,0.0,0.0,59,0.00,,,0.00,WUHU21623XXSP,2013-02-01 01:41:00,
2013-01-31 17:46:00,58.3,44.5,30.17,North,0,0.0,0.0,60,0.00,,,0.00,WUHU21623XXSP,2013-02-01 01:46:00,
2013-01-31 17:51:00,57.9,44.2,30.17,North,0,0.0,0.0,61,0.00,,,0.00,WUHU21623XXSP,2013-02-01 01:51:00,
2013-01-31 17:56:00,57.4,44.5,30.17,North,0,0.0,0.0,62,0.00,,,0.00,WUHU21623XXSP,2013-02-01 01:56:00,
2013-01-31 18:01:00,56.8,44.0,30.17,North,0,0.0,0.0,62,0.00,,,0.00,WUHU21623XXSP,2013-02-01 02:01:00,
2013-01-31 18:06:00,56.3,43.8,30.17,North,0,0.0,0.0,63,0.00,,,0.00,WUHU21623XXSP,2013-02-01 02:06:00,
2013-01-31 18:11:00,55.9,43.9,30.17,North,0,0.0,0.0,64,0.00,,,0.00,WUHU21623XXSP,2013-02-01 02:11:00,
2013-01-31 18:16:00,55.2,43.6,30.18,North,0,0.0,0.0,65,0.00,,,0.00,WUHU21623XXSP,2013-02-01 02:16:00,
2013-01-31 18:21:00,54.7,43.4,30.18,North,0,0.0,0.0,65,0.00,,,0.00,WUHU21623XXSP,2013-02-01 02:21:00,
2013-01-31 18:26:00,54.3,43.2,30.18,North,0,0.0,0.0,66,0.00,,,0.00,WUHU21623XXSP,2013-02-01 02:26:00,
2013-01-31 18:31:00,54.0,43.2,30.18,North,0,0.0,0.0,67,0.00,,,0.00,WUHU21623XXSP,2013-02-01 02:31:00,
2013-01-31 18:36:00,53.8,43.4,30.18,North,0,0.0,0.0,68,0.00,,,0.00,WUHU21623XXSP,2013-02-01 02:36:00,
2013-01-31 18:41:00,53.4,43.1,30.18,North,0,0.0,0.0,68,0.00,,,0.00,WUHU21623XXSP,2013-02-01 02:41:00,
2013-01-31 18:46:00,52.9,43.0,30.18,North,0,0.0,0.0,69,0.00,,,0.00,WUHU21623XXSP,2013-02-01 02:46:00,
2013-01-31 18:51:00,52.9,43.0,30.19,North,0,0.0,0.0,69,0.00,,,0.00,WUHU21623XXSP,2013-02-01 02:51:00,
2013-01-31 18:56:00,52.5,43.1,30.18,North,0,0.0,0.0,70,0.00,,,0.00,WUHU21623XXSP,2013-02-01 02:56:00,
2013-01-31 19:01:00,52.2,42.8,30.18,North,0,0.0,0.0,70,0.00,,,0.00,WUHU21623XXSP,2013-02-01 03:01:00,
2013-01-31 19:06:00,52.2,43.1,30.18,North,0,0.0,0.0,71,0.00,,,0.00,WUHU21623XXSP,2013-02-01 03:06:00,
2013-01-31 19:11:00,51.6,42.9,30.18,North,0,0.0,0.0,72,0.00,,,0.00,WUHU21623XXSP,2013-02-01 03:11:00,
2013-01-31 19:16:00,51.6,42.9,30.18,North,0,0.0,0.0,72,0.00,,,0.00,WUHU21623XXSP,2013-02-01 03:16:00,
2013-01-31 19:21:00,51.4,42.8,30.18,North,0,0.0,0.0,72,0.00,,,0.00,WUHU21623XXSP,2013-02-01 03:21:00,
2013-01-31 19:26:00,51.3,42.9,30.18,North,0,0.0,0.0,73,0.00,,,0.00,WUHU21623XXSP,2013-02-01 03:26:00,
2013-01-31 19:31:00,50.9,42.6,30.18,North,0,0.0,0.0,73,0.00,,,0.00,WUHU21623XXSP,2013-02-01 03:31:00,
2013-01-31 19:36:00,50.7,42.7,30.18,North,0,0.0,0.0,74,0.00,,,0.00,WUHU21623XXSP,2013-02-01 03:36:00,
2013-01-31 19:41:00,50.5,42.5,30.18,North,0,0.0,0.0,74,0.00,,,0.00,WUHU21623XXSP,2013-02-01 03:41:00,
2013-01-31 19:46:00,50.4,42.4,30.18,North,0,0.0,0.0,74,0.00,,,0.00,WUHU21623XXSP,2013-02-01 03:46:00,
2013-01-31 19:51:00,50.2,42.5,30.18,North,0,0.0,0.0,75,0.00,,,0.00,WUHU21623XXSP,2013-02-01 03:51:00,
2013-01-31 19:56:00,49.8,42.2,30.18,North,0,0.0,0.0,75,0.00,,,0.00,WUHU21623XXSP,2013-02-01 03:56:00,
2013-01-31 20:01:00,49.6,42.0,30.18,North,0,0.0,0.0,76,0.00,,,0.00,WUHU21623XXSP,2013-02-01 04:01:00,
2013-01-31 20:06:00,49.3,42.0,30.18,North,0,0.0,0.0,76,0.00,,,0.00,WUHU21623XXSP,2013-02-01 04:06:00,
2013-01-31 20:11:00,49.1,41.8,30.18,North,0,0.0,0.0,76,0.00,,,0.00,WUHU21623XXSP,2013-02-01 04:11:00,
2013-01-31 20:16:00,48.9,41.6,30.18,North,0,0.0,0.0,76,0.00,,,0.00,WUHU21623XXSP,2013-02-01 04:16:00,
2013-01-31 20:21:00,48.7,41.8,30.18,North,0,0.0,0.0,77,0.00,,,0.00,WUHU21623XXSP,2013-02-01 04:21:00,
2013-01-31 20:26:00,48.7,41.8,30.18,North,0,0.0,0.0,77,0.00,,,0.00,WUHU21623XXSP,2013-02-01 04:26:00,
2013-01-31 20:31:00,48.6,41.6,30.18,North,0,0.0,0.0,77,0.00,,,0.00,WUHU21623XXSP,2013-02-01 04:31:00,
2013-01-31 20:36:00,48.0,41.1,30.18,North,0,0.0,0.0,77,0.00,,,0.00,WUHU21623XXSP,2013-02-01 04:36:00,
2013-01-31 20:41:00,48.0,41.4,30.18,North,0,0.0,0.0,78,0.00,,,0.00,WUHU21623XXSP,2013-02-01 04:41:00,
2013-01-31 20:46:00,47.8,41.3,30.18,North,0,0.0,0.0,78,0.00,,,0.00,WUHU21623XXSP,2013-02-01 04:46:00,
2013-01-31 20:51:00,47.7,41.1,30.18,North,0,0.0,0.0,78,0.00,,,0.00,WUHU21623XXSP,2013-02-01 04:51:00,
2013-01-31 20:56:00,47.3,41.1,30.18,North,0,0.0,0.0,79,0.00,,,0.00,WUHU21623XXSP,2013-02-01 04:56:00,
2013-01-31 21:00:00,47.3,40.8,30.18,North,0,0.0,0.0,78,0.00,,,0.00,WUHU21623XXSP,2013-02-01 05:00:00,
2013-01-31 21:01:00,47.3,40.8,30.18,North,0,0.0,0.0,78,0.00,,,0.00,WUHU21623XXSP,2013-02-01 05:01:00,
2013-01-31 21:02:00,47.3,40.8,30.18,North,0,0.0,0.0,78,0.00,,,0.00,WUHU21623XXSP,2013-02-01 05:02:00,
2013-01-31 21:07:00,46.9,40.8,30.18,North,0,0.0,0.0,79,0.00,,,0.00,WUHU21623XXSP,2013-02-01 05:07:00,
2013-01-31 21:12:00,46.9,40.8,30.18,North,0,0.0,0.0,79,0.00,,,0.00,WUHU21623XXSP,2013-02-01 05:12:00,
2013-01-31 21:17:00,46.6,40.8,30.18,North,0,0.0,0.0,80,0.00,,,0.00,WUHU21623XXSP,2013-02-01 05:17:00,
2013-01-31 21:22:00,46.2,40.5,30.18,North,0,0.0,0.0,80,0.00,,,0.00,WUHU21623XXSP,2013-02-01 05:22:00,
2013-01-31 21:28:00,46.2,40.5,30.18,North,0,0.0,0.0,80,0.00,,,0.00,WUHU21623XXSP,2013-02-01 05:28:00,
2013-01-31 21:33:00,46.0,40.3,30.18,North,0,0.0,0.0,80,0.00,,,0.00,WUHU21623XXSP,2013-02-01 05:33:00,
2013-01-31 21:38:00,45.7,40.3,30.18,North,0,0.0,0.0,80,0.00,,,0.00,WUHU21623XXSP,2013-02-01 05:38:00,
2013-01-31 21:43:00,45.5,40.0,30.18,North,0,0.0,0.0,81,0.00,,,0.00,WUHU21623XXSP,2013-02-01 05:43:00,
2013-01-31 21:48:00,45.3,39.9,30.18,North,0,0.0,0.0,81,0.00,,,0.00,WUHU21623XXSP,2013-02-01 05:48:00,
2013-01-31 21:53:00,45.3,39.9,30.19,North,0,0.0,0.0,81,0.00,,,0.00,WUHU21623XXSP,2013-02-01 05:53:00,
2013-01-31 21:58:00,45.0,39.5,30.19,North,0,0.0,0.0,81,0.00,,,0.00,WUHU21623XXSP,2013-02-01 05:58:00,
2013-01-31 22:03:00,44.8,39.5,30.19,North,0,0.0,0.0,81,0.00,,,0.00,WUHU21623XXSP,2013-02-01 06:03:00,
2013-01-31 22:08:00,44.6,39.5,30.18,North,0,0.0,0.0,82,0.00,,,0.00,WUHU21623XXSP,2013-02-01 06:08:00,
2013-01-31 22:13:00,44.4,39.3,30.18,North,0,0.0,0.0,82,0.00,,,0.00,WUHU21623XXSP,2013-02-01 06:13:00,
2013-01-31 22:18:00,44.4,39.3,30.18,North,0,0.0,0.0,82,0.00,,,0.00,WUHU21623XXSP,2013-02-01 06:18:00,
2013-01-31 22:23:00,44.2,39.1,30.18,North,0,0.0,0.0,82,0.00,,,0.00,WUHU21623XXSP,2013-02-01 06:23:00,
2013-01-31 22:28:00,44.1,38.9,30.18,North,0,0.0,0.0,82,0.00,,,0.00,WUHU21623XXSP,2013-02-01 06:28:00,
2013-01-31 22:33:00,43.9,38.7,30.18,North,0,0.0,0.0,82,0.00,,,0.00,WUHU21623XXSP,2013-02-01 06:33:00,
2013-01-31 22:38:00,43.7,38.6,30.18,North,0,0.0,0.0,82,0.00,,,0.00,WUHU21623XXSP,2013-02-01 06:38:00,
2013-01-31 22:43:00,43.5,38.7,30.18,North,0,0.0,0.0,83,0.00,,,0.00,WUHU21623XXSP,2013-02-01 06:43:00,
2013-01-31 22:48:00,43.5,38.7,30.18,North,0,0.0,0.0,83,0.00,,,0.00,WUHU21623XXSP,2013-02-01 06:48:00,
2013-01-31 22:53:00,43.3,38.5,30.18,North,0,0.0,0.0,83,0.00,,,0.00,WUHU21623XXSP,2013-02-01 06:53:00,
2013-01-31 22:58:00,43.3,38.5,30.18,North,0,0.0,0.0,83,0.00,,,0.00,WUHU21623XXSP,2013-02-01 06:58:00,
2013-01-31 23:03:00,43.3,38.5,30.18,North,0,0.0,0.0,83,0.00,,,0.00,WUHU21623XXSP,2013-02-01 07:03:00,
2013-01-31 23:08:00,43.0,38.1,30.18,North,0,0.0,0.0,83,0.00,,,0.00,WUHU21623XXSP,2013-02-01 07:08:00,
2013-01-31 23:13:00,43.0,38.4,30.18,North,0,0.0,0.0,84,0.00,,,0.00,WUHU21623XXSP,2013-02-01 07:13:00,
2013-01-31 23:18:00,42.8,38.3,30.18,North,0,0.0,0.0,84,0.00,,,0.00,WUHU21623XXSP,2013-02-01 07:18:00,
2013-01-31 23:23:00,42.6,38.1,30.18,North,0,0.0,0.0,84,0.00,,,0.00,WUHU21623XXSP,2013-02-01 07:23:00,
2013-01-31 23:28:00,42.6,38.1,30.18,North,0,0.0,0.0,84,0.00,,,0.00,WUHU21623XXSP,2013-02-01 07:28:00,
2013-01-31 23:33:00,42.4,37.9,30.19,North,0,0.0,0.0,84,0.00,,,0.00,WUHU21623XXSP,2013-02-01 07:33:00,
2013-01-31 23:38:00,42.4,37.9,30.18,North,0,0.0,0.0,84,0.00,,,0.00,WUHU21623XXSP,2013-02-01 07:38:00,
2013-01-31 23:43:00,42.4,37.9,30.19,North,0,0.0,0.0,84,0.00,,,0.00,WUHU21623XXSP,2013-02-01 07:43:00,
2013-01-31 23:48:00,42.3,37.7,30.18,North,0,0.0,0.0,84,0.00,,,0.00,WUHU21623XXSP,2013-02-01 07:48:00,
2013-01-31 23:53:00,42.1,37.5,30.19,North,0,0.0,0.0,84,0.00,,,0.00,WUHU21623XXSP,2013-02-01 07:53:00,
2013-01-31 23:58:00,42.1,37.5,30.19,North,0,0.0,0.0,84,0.00,,,0.00,WUHU21623XXSP,2013-02-01 07:58:00,